User: anonymous   Login
Location: Unspecified
(0.0000°N, 0.0000°E)
Time: 19:25:16
(UTC+00:00)
Language:

IGS OPTICAL 5 - Orbit

View from above orbital plane
View from above orbital plane
View from above satellite
View from above satellite

Ground track
Ground track

The orbit data is extracted from the following two-line orbital elements,

1 40538U 15015A   21135.89786608 0.00000000  00000-0  00000-0 0    09
2 40538  97.4576 208.0321 0002030 345.9876  14.0122 15.17627962    09
Epoch (UTC): 15 May 2021 21:32:55
Eccentricity: 0.0002030
inclination: 97.4576°
perigee height: 511 km
apogee height: 514 km
right ascension of ascending node: 208.0321°
argument of perigee: 345.9876°
revolutions per day: 15.17627962
mean anomaly at epoch: 14.0122°
orbit number at epoch: 0

The dashed part of the orbit path shows where the satellite is in the earth's shadow,  

DLR